Location: Prairie State College
(41.5244°N, 87.6382°W)
Time: 18:24:16
(UTC-05:00)

ISS - All Passes

Search period start: 26 August 2016 00:00
Search period end: 05 September 2016 00:00
Orbit: 402 x 406 km, 51.6° (Epoch: 27 August)

Date Brightness Start Highest point End Pass type
(mag) Time Alt. Az. Time Alt. Az. Time Alt. Az.
26 Aug - 09:10:37 10° SSW 09:13:38 36° SE 09:16:42 10° ENE daylight
26 Aug - 10:47:10 10° W 10:50:09 31° NNW 10:53:08 10° NE daylight
26 Aug - 12:25:26 10° NW 12:27:23 15° N 12:29:20 10° NNE daylight
26 Aug - 14:02:24 10° NNW 14:04:48 18° NNE 14:07:13 10° ENE daylight
26 Aug - 15:38:26 10° NW 15:41:44 71° NNE 15:45:00 10° ESE daylight
26 Aug - 17:16:09 10° W 17:17:48 13° SW 17:19:26 10° SSW daylight
27 Aug - 08:18:57 10° S 08:21:23 19° SE 08:23:49 10° E daylight
27 Aug - 09:54:24 10° WSW 09:57:37 50° NNW 10:00:50 10° NE daylight
27 Aug - 11:32:27 10° NW 11:34:40 16° NNW 11:36:52 10° NNE daylight
27 Aug - 13:10:01 10° NNW 13:12:06 16° N 13:14:11 10° NE daylight
27 Aug - 14:46:05 10° NW 14:49:15 40° NNE 14:52:22 10° E daylight
27 Aug - 16:22:50 10° WNW 16:25:34 25° SW 16:28:19 10° SSE daylight
28 Aug - 07:28:58 10° SE 07:29:10 10° SE 07:29:23 10° SE daylight
28 Aug - 09:01:51 10° SW 09:05:08 89° SE 09:08:27 10° NE daylight
28 Aug - 10:39:25 10° WNW 10:41:58 20° NNW 10:44:32 10° NNE daylight
28 Aug - 12:17:29 10° NNW 12:19:22 14° N 12:21:15 10° NE daylight
28 Aug - 13:53:47 10° NW 13:56:40 27° NNE 13:59:31 10° E daylight
28 Aug - 15:30:04 10° WNW 15:33:15 48° SW 15:36:25 10° SE daylight
29 Aug - 08:09:36 10° SSW 08:12:44 45° SE 08:15:54 10° ENE daylight
29 Aug - 09:46:26 10° W 09:49:19 27° NNW 09:52:13 10° NE daylight
29 Aug - 11:24:43 10° NW 11:26:36 14° N 11:28:29 10° NNE daylight
29 Aug - 13:01:29 10° NNW 13:04:00 20° NNE 13:06:31 10° ENE daylight
29 Aug - 14:37:33 10° NW 14:40:51 87° NE 14:44:07 10° SE daylight
29 Aug - 16:16:06 10° WSW 16:16:50 11° SW 16:17:32 10° SW daylight
30 Aug - 07:17:43 10° S 07:20:24 24° SE 07:23:06 10° E daylight
30 Aug - 08:53:34 10° WSW 08:56:43 42° NNW 08:59:52 10° NE daylight
30 Aug - 10:31:44 10° NW 10:33:50 16° N 10:35:56 10° NNE daylight
30 Aug - 12:09:06 10° NNW 12:11:17 16° N 12:13:27 10° NE daylight
30 Aug - 13:45:08 10° NW 13:48:20 48° NNE 13:51:32 10° ESE daylight
30 Aug - 15:22:05 10° W 15:24:35 20° SW 15:27:04 10° S daylight
31 Aug - 06:26:38 10° SSE 06:28:08 13° SE 06:29:38 10° ESE daylight
31 Aug - 08:00:55 10° WSW 08:04:11 74° NNW 08:07:29 10° NE daylight
31 Aug - 09:38:40 10° WNW 09:41:05 19° NNW 09:43:32 10° NNE daylight
31 Aug - 11:16:35 10° NNW 11:18:30 14° N 11:20:26 10° NE daylight
31 Aug - 12:52:46 10° NW 12:55:45 30° NNE 12:58:42 10° E daylight
31 Aug - 14:29:10 10° WNW 14:32:15 38° SW 14:35:19 10° SSE daylight
01 Sep - 07:08:30 10° SW 07:11:43 57° SE 07:14:57 10° ENE daylight
01 Sep - 08:45:36 10° W 08:48:23 24° NNW 08:51:09 10° NE daylight
01 Sep - 10:23:51 10° NW 10:25:42 14° N 10:27:34 10° NNE daylight
01 Sep - 12:00:26 10° NW 12:03:05 22° NNE 12:05:42 10° ENE daylight
01 Sep - 13:36:33 10° WNW 13:39:50 76° SW 13:43:06 10° SE daylight
02 Sep - 06:16:27 10° SSW 06:19:19 29° SE 06:22:13 10° ENE daylight
02 Sep - 07:52:39 10° W 07:55:43 36° NNW 07:58:48 10° NE daylight
02 Sep - 09:30:53 10° NW 09:32:54 15° N 09:34:54 10° NNE daylight
02 Sep - 11:08:02 10° NNW 11:10:20 17° NNE 11:12:37 10° ENE daylight
02 Sep - 12:44:04 10° NW 12:47:19 58° NNE 12:50:34 10° ESE daylight
02 Sep - 14:21:19 10° W 14:23:29 16° SW 14:25:38 10° S daylight
03 Sep - 05:24:57 10° S 05:26:59 16° SE 05:29:02 10° E visible
03 Sep - 06:59:53 10° WSW 07:03:07 61° NNW 07:06:23 10° NE daylight
03 Sep - 08:37:47 10° WNW 08:40:06 17° NNW 08:42:24 10° NNE daylight
03 Sep - 10:15:32 10° NNW 10:17:31 15° N 10:19:31 10° NE daylight
03 Sep - 11:51:40 10° NW 11:54:43 34° NNE 11:57:45 10° E daylight
03 Sep - 13:28:11 10° WNW 13:31:08 31° SW 13:34:04 10° SSE daylight
04 Sep - 06:07:20 10° SW 06:10:36 72° SE 06:13:51 10° ENE daylight
04 Sep - 07:44:40 10° WNW 07:47:20 22° NNW 07:50:00 10° NE daylight
04 Sep - 09:22:50 10° NNW 09:24:41 14° N 09:26:32 10° NE daylight
04 Sep - 10:59:16 10° NW 11:02:01 24° NNE 11:04:46 10° ENE daylight
04 Sep - 12:35:27 10° WNW 12:38:41 61° SW 12:41:56 10° SE daylight
